Probability
0 0 0 0 0 0 0 0 0 0 0 0 0 6 10 6 16 19 26 26 29 39 39 42 45 58 68 71 81 77 77 81 74 77 65 71 65 65 68 65 65 58 55 52
0 0 0 0 0 0 0 0 0 0 0 0 3 6 10 6 16 16 23 23 19 29 35 52 48 52 61 65 84 84 77 77 71 68 68 74 68 68 65 58 61 55 52 52
0 0 0 0 0 0 0 0 0 0 0 0 0 6 10 10 10 16 16 13 23 29 45 55 55 45 52 55 65 68 77 74 74 71 65 65 71 71 65 61 58 55 48 48
0 0 0 0 0 0 0 0 0 0 0 0 0 3 10 16 13 13 13 19 23 29 39 45 48 52 55 52 55 74 77 74 77 71 65 65 68 61 68 65 55 55 48 48
0 0 0 0 0 0 0 0 0 0 0 0 0 0 6 10 10 19 19 16 26 26 32 39 39 45 45 52 52 58 71 81 74 68 68 71 68 61 65 58 58 61 48 45
0 0 0 0 0 0 0 0 0 0 0 0 0 3 6 10 13 19 26 23 32 32 29 35 35 45 42 42 39 52 68 71 74 68 68 68 61 65 58 58 58 58 52 42
0 0 0 0 0 0 0 0 0 0 0 0 0 3 10 6 19 26 29 23 29 26 32 35 39 39 42 39 39 42 61 68 68 65 65 65 65 61 55 52 52 55 48 45
0 0 0 0 0 0 0 0 0 0 0 0 0 3 10 10 19 23 26 26 26 26 29 35 35 32 35 39 35 42 58 61 61 58 61 61 61 55 55 52 48 52 48 42
0 0 0 0 0 0 0 0 0 0 0 0 0 13 10 16 26 29 19 23 23 26 26 23 35 35 35 29 29 42 55 55 55 55 58 61 61 61 55 55 52 48 42 35
0 0 0 0 0 0 0 0 0 0 3 0 0 13 13 19 23 6 16 16 19 23 23 26 32 39 32 29 32 35 35 45 48 52 52 52 55 55 48 55 55 45 45 42
0 0 0 0 0 0 0 0 0 0 0 0 0 10 13 19 23 10 10 10 19 29 26 23 19 29 26 23 29 29 32 35 35 39 45 45 45 42 42 45 45 39 45 39
0 0 0 0 0 0 0 0 0 0 0 0 0 0 10 23 16 16 16 19 23 26 19 19 16 19 16 19 23 29 29 29 32 35 39 42 45 45 42 42 45 45 39 35
0 0 0 0 0 0 0 0 0 0 3 0 0 3 16 13 13 23 23 23 23 19 16 16 16 10 10 10 13 19 26 29 26 26 35 39 42 39 42 35 42 35 32 32
0 0 0 0 0 0 0 0 0 0 0 0 0 6 16 19 19 16 16 19 19 19 16 19 16 13 16 10 13 13 19 19 23 26 29 35 32 35 32 45 35 32 26 29
0 0 0 0 0 0 0 0 0 0 0 0 0 6 13 19 16 16 13 13 16 13 13 16 19 19 16 10 13 13 13 16 16 19 26 26 23 26 26 32 35 29 26 26
0 0 0 0 0 0 0 0 0 0 0 0 10 10 13 16 10 10 10 10 13 13 13 16 13 16 16 16 10 10 10 16 16 16 16 19 19 23 23 23 26 23 23 23
0 6 0 0 0 0 0 0 0 0 0 0 6 10 6 6 3 3 6 10 10 10 10 10 10 16 19 16 19 10 13 16 13 16 16 19 19 19 23 23 19 19 23 23
0 10 10 0 0 0 0 0 0 0 3 3 6 3 3 0 3 3 6 6 3 3 6 6 10 13 13 16 23 19 10 13 13 16 16 16 19 19 23 23 23 23 23 19
0 3 0 0 0 0 0 0 0 0 3 3 3 3 0 0 3 6 3 0 0 0 3 10 13 13 13 16 19 23 10 10 10 10 10 16 19 19 19 23 26 23 23 19
0 3 0 0 0 0 0 0 0 3 3 3 3 0 0 0 3 6 0 0 0 6 0 3 10 6 13 16 16 16 16 10 13 13 13 13 16 19 19 19 23 23 19 19
0 0 0 0 0 3 0 0 0 3 6 6 3 0 0 6 6 6 0 0 0 3 0 3 3 13 13 13 16 19 19 13 10 10 13 13 13 13 16 16 23 23 19 19
0 0 3 3 3 3 3 3 6 16 10 10 3 0 6 6 10 6 3 0 0 0 3 3 6 10 13 13 16 16 16 16 13 10 10 13 13 13 6 13 19 19 23 16
0 3 3 3 6 10 10 10 10 10 13 6 0 3 3 3 3 0 3 3 0 3 3 6 6 6 10 13 13 16 23 23 16 16 16 16 16 19 19 16 16 16 19 10
3 3 3 6 3 6 3 0 3 6 6 0 0 0 3 3 0 0 3 6 6 6 6 6 10 6 6 6 10 13 16 19 23 19 16 19 26 13 19 19 16 13 13 6
0 3 3 3 3 3 0 0 0 3 0 0 0 0 0 0 0 0 6 6 6 6 6 6 6 10 6 10 6 6 10 19 16 16 10 13 10 13 13 6 13 13 13 10
3 3 3 3 0 3 0 0 0 0 0 0 0 0 0 0 0 0 6 6 6 6 6 10 10 6 6 6 6 13 13 16 19 13 10 10 10 13 10 6 6 3 3 0
Height
5868 5872 5873 5877 5879 5882 5885 5887 5889 5890 5889 5891 5891 5892 5890 5890 5889 5888 5887 5886 5887 5887 5887 5886 5885 5883 5882 5881 5880 5879 5878 5877 5876 5874 5873 5872 5871 5870 5869 5868 5867 5866 5866 5865
5866 5868 5871 5873 5876 5878 5881 5883 5885 5886 5886 5887 5888 5888 5887 5886 5886 5885 5884 5883 5884 5882 5883 5883 5882 5880 5878 5877 5877 5875 5874 5873 5872 5871 5870 5869 5868 5867 5866 5865 5864 5864 5863 5862
5863 5866 5868 5870 5873 5875 5877 5880 5882 5883 5883 5883 5884 5884 5883 5882 5882 5881 5881 5881 5880 5879 5878 5878 5877 5876 5874 5873 5873 5872 5871 5870 5869 5867 5866 5865 5864 5864 5863 5862 5861 5860 5859 5858
5860 5862 5865 5867 5869 5870 5873 5875 5877 5878 5880 5880 5881 5881 5880 5878 5878 5878 5877 5877 5876 5874 5874 5873 5873 5872 5871 5869 5868 5867 5866 5866 5864 5863 5862 5862 5861 5860 5859 5858 5857 5856 5855 5854
5856 5859 5861 5863 5866 5867 5869 5871 5872 5874 5875 5876 5877 5877 5877 5874 5873 5874 5874 5873 5872 5870 5870 5869 5868 5867 5866 5865 5864 5862 5862 5861 5860 5859 5858 5858 5857 5856 5855 5854 5853 5852 5851 5851
5853 5856 5858 5860 5862 5864 5865 5867 5868 5869 5871 5872 5873 5874 5873 5870 5869 5870 5869 5868 5867 5866 5865 5863 5863 5862 5861 5860 5859 5858 5857 5856 5855 5854 5853 5852 5852 5851 5850 5849 5849 5848 5847 5846
5850 5852 5854 5855 5857 5859 5861 5864 5865 5866 5867 5868 5869 5870 5869 5867 5865 5864 5864 5864 5863 5861 5859 5858 5857 5857 5856 5855 5854 5853 5851 5851 5849 5848 5847 5847 5846 5846 5845 5844 5843 5843 5842 5841
5848 5850 5850 5851 5853 5855 5857 5860 5862 5864 5866 5866 5865 5865 5864 5862 5861 5860 5860 5859 5857 5855 5854 5852 5852 5851 5850 5849 5848 5846 5845 5844 5843 5842 5841 5841 5840 5840 5839 5839 5838 5837 5837 5836
5845 5847 5847 5847 5848 5851 5853 5855 5858 5860 5860 5861 5861 5861 5859 5857 5857 5856 5855 5854 5852 5850 5848 5847 5846 5845 5844 5843 5841 5840 5839 5838 5837 5836 5835 5834 5834 5834 5833 5833 5832 5831 5830 5830
5840 5842 5843 5844 5845 5847 5849 5851 5853 5854 5855 5856 5858 5856 5853 5851 5850 5850 5849 5848 5847 5844 5842 5841 5840 5839 5837 5836 5835 5833 5831 5830 5829 5828 5828 5827 5827 5827 5827 5826 5826 5825 5824 5824
5836 5838 5840 5841 5841 5843 5845 5846 5847 5849 5850 5852 5853 5853 5849 5847 5845 5845 5843 5842 5841 5839 5837 5835 5834 5832 5830 5828 5827 5825 5824 5823 5822 5820 5821 5820 5820 5820 5819 5819 5819 5818 5817 5817
5831 5833 5834 5837 5838 5839 5841 5841 5843 5844 5844 5846 5847 5847 5842 5842 5840 5839 5838 5836 5835 5833 5831 5829 5827 5825 5823 5820 5818 5817 5816 5815 5814 5813 5813 5813 5813 5812 5812 5812 5811 5811 5811 5810
5826 5828 5830 5832 5835 5835 5835 5836 5837 5838 5838 5840 5841 5841 5837 5836 5834 5832 5830 5829 5828 5826 5824 5822 5820 5818 5816 5813 5811 5809 5808 5807 5806 5805 5805 5804 5804 5804 5804 5804 5804 5803 5803 5802
5821 5823 5826 5828 5828 5829 5829 5830 5831 5832 5833 5834 5834 5832 5831 5829 5828 5826 5824 5822 5821 5820 5818 5815 5813 5810 5808 5806 5804 5802 5801 5799 5798 5797 5796 5796 5796 5796 5796 5796 5796 5795 5795 5795
5816 5818 5820 5821 5823 5824 5824 5825 5826 5826 5827 5828 5827 5825 5824 5823 5821 5820 5818 5816 5814 5813 5811 5808 5806 5804 5801 5799 5797 5795 5793 5792 5790 5789 5788 5788 5788 5788 5787 5787 5787 5787 5787 5787
5811 5813 5814 5816 5817 5818 5819 5820 5820 5820 5820 5820 5819 5819 5818 5816 5815 5814 5812 5810 5808 5806 5804 5802 5799 5797 5795 5792 5790 5788 5786 5784 5783 5782 5780 5780 5780 5780 5779 5779 5779 5778 5778 5778
5806 5807 5809 5810 5811 5812 5813 5814 5814 5814 5813 5813 5812 5812 5811 5809 5808 5807 5805 5803 5801 5799 5797 5794 5792 5790 5787 5785 5783 5780 5779 5777 5776 5775 5773 5772 5772 5772 5772 5771 5771 5771 5770 5770
5801 5802 5803 5805 5806 5807 5809 5807 5807 5807 5807 5806 5806 5805 5804 5803 5801 5800 5798 5796 5794 5792 5789 5787 5785 5783 5781 5778 5776 5774 5772 5770 5769 5767 5766 5765 5764 5764 5764 5763 5763 5762 5762 5762
5795 5797 5798 5799 5799 5801 5802 5800 5800 5801 5800 5799 5799 5798 5797 5796 5794 5792 5791 5789 5786 5784 5783 5780 5778 5776 5774 5772 5769 5767 5765 5763 5761 5760 5758 5757 5757 5756 5755 5755 5755 5754 5754 5753
5790 5791 5792 5793 5794 5794 5795 5794 5794 5795 5793 5792 5792 5791 5790 5789 5788 5786 5784 5782 5779 5778 5776 5774 5771 5769 5767 5765 5762 5760 5758 5756 5754 5752 5751 5750 5749 5748 5747 5746 5746 5746 5745 5745
5784 5785 5786 5786 5787 5787 5787 5787 5788 5788 5787 5786 5785 5784 5783 5782 5781 5779 5777 5776 5774 5772 5770 5767 5765 5762 5760 5757 5755 5753 5750 5748 5746 5744 5743 5741 5740 5739 5738 5738 5737 5737 5736 5736
5778 5779 5780 5780 5780 5782 5780 5780 5781 5781 5779 5778 5777 5777 5776 5775 5773 5772 5770 5768 5766 5764 5762 5760 5758 5755 5753 5750 5747 5745 5743 5741 5739 5737 5735 5734 5732 5731 5730 5729 5728 5728 5728 5728
5771 5773 5773 5774 5775 5774 5774 5773 5773 5773 5773 5772 5771 5770 5769 5768 5766 5765 5763 5761 5759 5757 5755 5753 5751 5748 5745 5742 5740 5738 5735 5733 5731 5729 5728 5726 5724 5723 5722 5721 5720 5719 5719 5718
5766 5766 5767 5767 5767 5767 5767 5767 5766 5766 5766 5765 5764 5763 5762 5760 5759 5757 5756 5754 5752 5750 5748 5746 5743 5741 5738 5736 5733 5731 5728 5725 5723 5721 5720 5718 5716 5715 5714 5712 5712 5711 5711 5710
5760 5760 5760 5760 5761 5761 5760 5760 5760 5759 5759 5758 5757 5756 5755 5753 5752 5750 5748 5746 5745 5743 5741 5738 5736 5733 5731 5728 5726 5723 5721 5718 5716 5714 5712 5710 5708 5707 5706 5704 5703 5702 5702 5702
5754 5755 5755 5754 5754 5754 5754 5754 5753 5753 5752 5751 5750 5749 5747 5746 5744 5742 5741 5739 5737 5735 5733 5731 5729 5726 5723 5721 5718 5716 5714 5711 5709 5706 5704 5702 5700 5699 5698 5696 5695 5694 5694 5693
Wind_Speed
16 16 17 17 17 16 15 14 14 15 15 15 15 16 17 17 19 20 20 18 18 18 18 19 19 20 19 19 19 19 19 18 18 18 18 17 16 16 15 14 14 14 14 15
16 16 18 18 17 17 17 16 15 15 16 15 16 17 18 18 19 21 20 19 20 19 20 20 21 22 22 20 20 20 20 20 20 19 19 18 18 17 16 16 16 16 16 17
16 16 17 17 17 17 17 17 17 16 16 15 16 18 18 18 19 21 22 21 21 20 20 21 21 22 22 22 22 22 21 21 21 21 20 20 19 18 18 17 17 17 18 18
17 17 17 17 17 18 17 17 18 18 17 16 16 17 19 21 21 21 22 22 22 21 21 21 21 22 22 22 23 23 22 22 22 22 22 21 21 20 20 19 18 18 19 19
15 16 17 16 17 17 17 16 17 17 16 16 16 18 20 22 22 22 22 22 23 24 24 22 22 23 23 22 23 24 24 24 24 24 23 23 22 22 21 20 20 20 20 20
15 16 16 17 17 17 16 16 16 15 16 19 17 19 21 23 23 23 22 23 24 25 25 24 22 23 24 24 23 24 24 24 25 25 25 24 24 23 22 22 22 22 22 22
15 16 17 18 18 17 16 15 15 15 17 19 17 20 23 23 24 23 23 25 26 25 24 23 24 25 25 25 26 26 26 25 26 26 26 25 25 24 24 24 24 24 24 24
14 16 18 18 17 16 16 16 16 15 15 16 17 20 21 22 23 23 24 25 25 25 24 24 24 25 26 26 27 27 27 27 27 27 27 26 26 26 26 26 25 25 25 25
14 14 15 16 15 16 16 17 16 17 17 16 17 19 23 24 24 24 25 24 25 26 25 25 26 27 28 28 27 28 28 28 28 28 28 28 28 28 28 27 27 27 26 26
16 15 15 17 16 15 16 16 17 18 17 17 17 19 22 24 23 24 25 25 26 27 27 28 28 29 30 30 29 29 29 29 29 28 28 29 29 29 28 28 28 28 28 27
17 17 15 17 17 15 16 17 18 18 18 18 18 20 23 26 26 27 26 26 28 28 28 29 30 30 31 30 30 30 30 30 29 28 28 29 29 28 28 29 29 29 29 28
20 19 18 17 17 16 17 18 19 20 20 20 20 24 26 26 27 28 29 29 28 29 29 30 30 30 30 31 30 30 30 29 29 29 30 30 29 29 29 29 29 29 29 29
20 19 18 16 17 18 19 19 20 21 21 21 21 25 27 28 28 28 29 28 29 29 30 30 30 31 31 31 30 30 30 30 30 30 30 30 30 31 31 31 30 30 30 30
20 20 20 19 19 20 19 19 19 20 21 22 23 27 27 28 29 30 29 28 29 29 30 30 30 30 30 30 29 29 29 30 29 29 29 30 30 31 31 32 31 31 31 30
21 21 21 19 20 21 20 19 19 21 22 23 24 27 27 28 29 30 30 30 30 29 30 30 29 29 29 29 29 29 29 28 29 29 28 28 29 29 30 30 31 31 30 30
21 21 21 22 21 21 22 22 22 22 22 24 26 27 28 29 29 30 30 30 30 30 30 29 29 28 28 28 29 29 28 28 28 29 28 28 28 28 28 29 28 29 30 30
21 21 21 21 21 21 22 21 21 22 23 25 27 27 29 30 30 29 29 30 30 30 30 29 28 27 27 27 27 28 28 28 28 28 27 28 28 29 29 29 28 28 29 28
21 21 21 20 20 21 21 22 23 24 25 26 27 28 28 29 29 28 29 29 29 29 29 29 28 27 27 27 27 28 28 28 28 28 27 28 28 28 29 29 29 29 29 29
21 21 21 20 20 20 21 22 23 24 26 27 27 27 27 28 28 28 27 28 28 27 28 28 28 28 27 27 28 28 29 29 29 28 28 28 28 28 29 30 30 30 30 30
21 21 21 21 22 22 24 25 24 24 26 26 26 26 26 27 27 27 27 27 26 27 27 28 29 28 28 28 28 29 29 29 28 28 28 29 29 30 30 30 30 31 31 31
22 22 22 22 23 24 25 24 23 25 26 26 26 25 26 27 28 28 28 27 27 28 28 28 28 28 28 29 29 29 29 29 29 28 28 29 29 29 30 30 30 31 31 30
23 22 22 22 23 25 25 24 24 25 26 25 26 26 27 27 27 27 28 28 28 28 28 28 28 28 29 29 29 29 29 29 29 28 28 28 28 28 29 29 29 30 31 31
22 22 23 23 24 24 25 25 25 25 26 25 26 27 27 27 26 27 28 28 28 28 27 27 27 27 28 28 28 28 29 28 28 28 28 28 28 29 29 29 29 29 30 30
22 22 23 23 23 24 25 26 27 27 27 27 27 27 27 27 27 28 28 28 28 28 27 27 27 27 27 27 27 27 27 27 28 28 28 28 29 29 29 29 29 29 29 29
23 23 23 24 24 25 25 26 27 27 27 28 27 27 27 28 28 28 28 27 27 27 27 27 28 28 28 28 28 28 28 28 28 28 29 29 29 29 29 28 29 29 28 29
23 23 24 25 25 26 26 26 26 27 27 27 28 27 27 27 28 28 27 27 26 26 26 27 27 28 28 28 28 28 28 28 29 29 29 29 29 28 28 27 27 27 28 28
Wind_Direction
235 236 238 239 236 234 237 238 245 248 248 253 256 258 261 266 271 273 271 272 281 286 290 290 292 295 297 300 303 304 304 303 302 303 303 301 302 301 300 300 299 295 294 294
238 238 237 238 239 235 236 239 244 249 249 248 252 255 262 268 272 276 278 278 280 286 289 291 293 295 297 297 298 300 299 300 299 299 299 300 298 296 295 299 299 297 294 292
238 242 239 237 238 238 237 238 239 244 251 251 256 257 260 269 273 274 277 281 283 287 288 289 292 294 296 296 295 295 295 296 296 296 297 297 297 295 293 294 295 294 292 290
236 233 235 235 236 236 243 241 239 240 246 256 264 264 262 264 271 274 278 282 284 283 285 289 293 294 292 292 292 291 292 293 293 293 293 293 292 292 291 292 294 293 292 290
237 231 234 238 239 238 240 243 246 246 248 248 251 261 264 269 271 273 278 282 283 285 286 288 290 291 289 289 289 289 290 291 290 289 288 290 291 290 291 292 295 297 297 292
237 240 238 241 243 241 242 244 249 251 251 252 249 254 259 260 268 274 281 284 284 285 285 288 287 287 287 288 287 288 289 289 289 287 286 285 286 286 288 291 293 294 295 294
241 242 243 242 245 243 243 241 245 254 254 258 255 253 257 263 268 271 278 283 284 284 285 286 286 286 286 287 287 288 288 288 287 285 284 283 282 283 286 287 289 291 292 293
251 252 246 245 243 241 244 240 236 245 261 268 267 259 264 267 267 270 275 280 283 284 286 286 287 287 286 286 286 286 287 286 284 283 283 281 280 280 282 284 286 288 289 289
230 249 256 255 247 236 238 237 233 240 245 258 263 264 267 272 273 275 278 280 285 285 287 288 288 288 287 288 287 286 285 283 282 280 280 279 278 277 278 280 283 285 287 288
223 229 240 252 253 245 236 241 239 234 245 252 261 266 268 271 274 275 277 281 283 284 285 288 288 288 288 288 287 286 284 282 281 278 277 278 277 276 276 277 279 282 284 285
229 229 231 244 249 244 245 240 240 240 238 248 257 264 268 274 277 279 279 281 284 284 286 287 288 289 290 289 287 285 284 283 280 277 276 277 277 276 276 277 277 279 281 283
233 233 233 237 247 245 247 247 246 245 245 244 252 263 266 272 274 277 278 280 283 285 287 287 288 289 289 288 288 286 284 283 281 278 278 277 275 276 276 276 277 278 279 280
237 236 236 237 245 250 248 246 247 248 250 249 253 262 267 273 276 279 281 281 282 286 289 289 289 289 288 288 287 285 284 283 281 279 277 276 274 274 274 274 276 277 278 280
242 239 236 239 239 246 251 251 252 254 254 256 256 260 265 271 274 278 282 283 287 289 290 291 290 289 289 289 288 286 284 282 279 278 277 276 273 273 273 273 274 276 277 277
242 244 243 245 247 248 255 258 255 256 254 256 260 262 265 270 274 277 281 284 288 290 290 291 291 290 290 289 288 288 285 282 279 279 278 276 273 273 273 274 275 274 275 276
246 246 245 245 248 249 254 256 259 257 255 258 262 264 266 270 274 278 282 284 285 287 289 290 292 292 291 290 289 288 287 285 282 280 278 277 275 274 274 275 275 275 275 275
250 251 251 254 254 253 254 258 260 261 262 262 265 267 268 271 277 280 282 284 285 287 290 291 292 292 292 291 291 291 289 288 285 282 280 278 277 276 276 275 276 278 278 278
254 254 255 256 256 258 260 262 261 263 264 265 269 272 274 277 280 281 282 284 287 288 289 289 289 291 291 291 291 292 290 289 288 284 281 279 278 276 274 275 276 278 279 279
256 257 257 257 259 261 264 265 265 265 267 269 272 274 276 279 281 283 286 287 286 287 289 290 289 291 290 291 291 291 290 289 289 287 284 280 278 277 276 277 277 278 279 279
257 258 256 256 259 260 263 266 268 268 270 273 275 276 277 279 281 284 286 288 291 291 290 289 290 290 290 290 289 290 291 290 290 288 285 283 281 279 277 276 276 277 277 277
261 261 260 260 260 261 264 266 268 267 272 275 276 276 278 279 281 284 285 287 289 291 291 291 291 290 291 291 289 288 289 288 289 288 287 285 283 282 280 278 277 276 275 274
260 262 262 263 262 261 266 269 269 271 274 276 277 278 280 282 283 284 285 286 288 290 291 291 292 292 292 292 291 289 288 288 287 287 287 287 285 283 282 281 279 275 273 274
262 265 265 265 265 266 268 270 271 272 275 278 279 280 280 281 283 284 284 285 287 289 290 291 293 294 295 294 293 291 290 288 288 287 287 287 287 285 283 281 279 276 275 275
259 262 265 266 265 267 268 269 271 274 277 278 280 281 282 284 285 285 285 285 286 288 290 292 293 293 293 294 294 294 293 291 290 289 288 288 288 287 284 281 280 279 277 275
260 262 264 266 268 269 271 272 275 277 279 281 281 282 283 285 286 287 287 287 287 288 290 292 293 293 294 294 293 293 293 293 292 291 290 290 289 288 287 285 282 279 276 276
261 263 264 266 269 271 273 274 277 279 281 283 284 284 283 284 285 287 288 288 288 289 290 292 293 294 294 293 292 292 294 294 294 293 290 290 289 288 287 286 284 283 280 279